DW5204 Weather Reports


Display with metric or nautical units.
time (UTC)temp
F
wind
direction
speed
MPH
gust
MPH
rain 1hr
in
rain 24hr
in
rain mn
in
humidity
%
barometer
mb
20260504050502 69 170 4.0 5.0 0.00 0.00 0.00 52 1015.6
20260504045959 69 87 3.0 3.0 0.00 0.00 0.00 52 1015.7
20260504045455 69 200 6.0 7.0 0.00 0.00 0.00 51 1015.6
20260504044951 69 180 5.0 6.0 0.00 0.00 0.00 51 1015.6
20260504044449 70 210 9.0 13.0 0.00 0.00 0.00 50 1015.5
20260504043946 70 181 5.0 6.0 0.00 0.00 0.00 50 1015.8
20260504043443 70 201 7.0 8.0 0.00 0.00 0.00 50 1015.7
20260504042941 70 229 4.0 5.0 0.00 0.00 0.00 49 1015.8
20260504042437 70 177 5.0 7.0 0.00 0.00 0.00 49 1016.0
20260504041934 70 188 3.0 3.0 0.00 0.00 0.00 49 1015.8
20260504041430 70 215 3.0 5.0 0.00 0.00 0.00 49 1016.0
20260504040926 70 199 4.0 6.0 0.00 0.00 0.00 49 1016.1
20260504040424 71 141 6.0 8.0 0.00 0.00 0.00 48 1016.0
20260504035920 71 192 3.0 5.0 0.00 0.00 0.00 48 1016.0
20260504035417 71 183 3.0 3.0 0.00 0.00 0.00 48 1015.8
20260504034914 71 200 4.0 6.0 0.00 0.00 0.00 48 1016.1
20260504034412 71 197 3.0 3.0 0.00 0.00 0.00 47 1016.0
20260504033908 71 195 5.0 7.0 0.00 0.00 0.00 47 1015.8
20260504033406 72 207 4.0 6.0 0.00 0.00 0.00 47 1015.9
20260504032903 72 184 4.0 6.0 0.00 0.00 0.00 46 1015.7
20260504032400 72 92 5.0 6.0 0.00 0.00 0.00 46 1015.6
20260504031856 72 164 7.0 10.0 0.00 0.00 0.00 46 1015.8
20260504031353 72 197 5.0 6.0 0.00 0.00 0.00 46 1016.0
20260504030850 72 168 10.0 14.0 0.00 0.00 0.00 45 1015.9
20260504030347 72 165 4.0 5.0 0.00 0.00 0.00 45 1015.7
20260504025843 73 202 7.0 8.0 0.00 0.00 0.00 45 1015.6
20260504025340 73 179 5.0 7.0 0.00 0.00 0.00 44 1015.4
20260504024837 73 224 4.0 5.0 0.00 0.00 0.00 44 1015.8
20260504024333 73 118 7.0 10.0 0.00 0.00 0.00 44 1015.6
20260504023830 74 205 4.0 6.0 0.00 0.00 0.00 43 1015.8
20260504023327 74 104 5.0 7.0 0.00 0.00 0.00 43 1015.9
20260504022822 74 183 3.0 5.0 0.00 0.00 0.00 43 1015.8
20260504022320 74 231 5.0 7.0 0.00 0.00 0.00 42 1015.6
20260504021816 74 129 5.0 7.0 0.00 0.00 0.00 42 1015.4
20260504021314 74 197 6.0 9.0 0.00 0.00 0.00 41 1015.5
20260504020811 75 187 5.0 7.0 0.00 0.00 0.00 41 1015.6
20260504020307 75 220 6.0 8.0 0.00 0.00 0.00 40 1015.6
20260504015803 75 211 3.0 3.0 0.00 0.00 0.00 40 1015.3
20260504015300 75 90 4.0 5.0 0.00 0.00 0.00 39 1015.4
20260504014755 75 195 6.0 8.0 0.00 0.00 0.00 39 1015.5
20260504014252 75 157 3.0 3.0 0.00 0.00 0.00 38 1015.3
20260504013750 76 208 5.0 7.0 0.00 0.00 0.00 38 1015.2
20260504013247 76 197 6.0 7.0 0.00 0.00 0.00 38 1015.4
20260504012743 76 156 6.0 7.0 0.00 0.00 0.00 37 1015.2
20260504012242 76 257 6.0 7.0 0.00 0.00 0.00 37 1015.0
20260504011738 77 194 6.0 7.0 0.00 0.00 0.00 37 1015.4
20260504011235 77 176 5.0 6.0 0.00 0.00 0.00 37 1015.3
20260504010731 77 209 6.0 9.0 0.00 0.00 0.00 37 1015.3
20260504010227 77 209 6.0 7.0 0.00 0.00 0.00 36 1015.2
20260504005724 77 186 7.0 8.0 0.00 0.00 0.00 36 1015.0
20260504005221 78 219 4.0 5.0 0.00 0.00 0.00 37 1015.1
20260504004718 78 165 6.0 14.0 0.00 0.00 0.00 36 1015.3
20260504004215 78 182 7.0 10.0 0.00 0.00 0.00 36 1015.1
20260504003712 79 144 3.0 6.0 0.00 0.00 0.00 36 1015.2
20260504003209 80 242 9.0 10.0 0.00 0.00 0.00 35 1015.4
20260504002705 80 174 7.0 9.0 0.00 0.00 0.00 35 1015.3
20260504002202 81 184 8.0 10.0 0.00 0.00 0.00 34 1015.3
20260504001655 81 211 4.0 7.0 0.00 0.00 0.00 34 1015.3
20260504001151 82 190 3.0 3.0 0.00 0.00 0.00 33 1015.2
20260504000648 82 217 10.0 11.0 0.00 0.00 0.00 31 1015.3
20260504000145 82 204 13.0 17.0 0.00 0.00 0.00 31 1015.2
20260503235643 82 179 3.0 5.0 0.00 0.00 0.00 31 1015.3
20260503235140 83 169 7.0 11.0 0.00 0.00 0.00 30 1015.6
20260503234638 83 232 4.0 6.0 0.00 0.00 0.00 32 1015.4
20260503234135 82 214 7.0 9.0 0.00 0.00 0.00 32 1015.5
20260503233632 83 122 7.0 8.0 0.00 0.00 0.00 31 1015.5
20260503233128 84 257 6.0 8.0 0.00 0.00 0.00 31 1015.5
20260503232625 83 155 4.0 6.0 0.00 0.00 0.00 31 1015.6
20260503232123 83 221 7.0 9.0 0.00 0.00 0.00 31 1015.7
20260503231620 83 207 11.0 15.0 0.00 0.00 0.00 30 1015.7
20260503231116 84 221 8.0 9.0 0.00 0.00 0.00 30 1015.8
20260503230613 85 117 6.0 7.0 0.00 0.00 0.00 30 1015.8
20260503230110 84 213 6.0 8.0 0.00 0.00 0.00 29 1015.7
20260503225608 85 170 9.0 11.0 0.00 0.00 0.00 28 1015.7
20260503225102 85 164 2.0 3.0 0.00 0.00 0.00 29 1015.5
20260503224600 85 134 5.0 8.0 0.00 0.00 0.00 29 1015.8
20260503224058 86 201 5.0 6.0 0.00 0.00 0.00 29 1015.7
20260503223555 85 211 7.0 9.0 0.00 0.00 0.00 28 1015.7
20260503223050 86 248 6.0 8.0 0.00 0.00 0.00 28 1016.0
20260503222549 86 211 5.0 8.0 0.00 0.00 0.00 28 1015.8
20260503222047 87 52 5.0 7.0 0.00 0.00 0.00 28 1015.9
20260503221544 87 65 5.0 6.0 0.00 0.00 0.00 28 1016.0
20260503221042 86 192 5.0 6.0 0.00 0.00 0.00 28 1015.9
20260503220538 86 201 6.0 8.0 0.00 0.00 0.00 28 1016.1
20260503220035 87 242 5.0 9.0 0.00 0.00 0.00 29 1016.2
20260503215532 87 212 8.0 13.0 0.00 0.00 0.00 29 1016.1
20260503215029 87 119 5.0 7.0 0.00 0.00 0.00 28 1016.3
20260503214527 87 103 2.0 3.0 0.00 0.00 0.00 29 1016.1
20260503214023 87 87 6.0 8.0 0.00 0.00 0.00 28 1016.5
20260503213522 87 160 5.0 7.0 0.00 0.00 0.00 29 1016.6
20260503213018 87 239 5.0 8.0 0.00 0.00 0.00 28 1016.6
20260503212516 87 224 9.0 11.0 0.00 0.00 0.00 28 1016.5
20260503212013 89 190 9.0 14.0 0.00 0.00 0.00 28 1016.6
20260503211510 88 216 5.0 6.0 0.00 0.00 0.00 27 1016.8
20260503211005 88 294 5.0 8.0 0.00 0.00 0.00 28 1016.7
20260503210502 88 74 2.0 2.0 0.00 0.00 0.00 28 1016.9
20260503210002 86 122 3.0 6.0 0.00 0.00 0.00 29 1017.0
20260503205500 87 110 6.0 8.0 0.00 0.00 0.00 28 1017.2
20260503204956 89 83 4.0 7.0 0.00 0.00 0.00 29 1017.3
20260503204453 88 180 3.0 5.0 0.00 0.00 0.00 29 1017.4
20260503203950 87 192 7.0 8.0 0.00 0.00 0.00 29 1017.6
20260503203448 87 212 5.0 6.0 0.00 0.00 0.00 29 1017.3
20260503202944 87 117 3.0 5.0 0.00 0.00 0.00 30 1017.6
20260503202442 85 235 3.0 6.0 0.00 0.00 0.00 30 1017.6
20260503201941 88 277 5.0 9.0 0.00 0.00 0.00 28 1017.8
20260503201437 87 218 5.0 7.0 0.00 0.00 0.00 29 1017.8
20260503200935 87 198 3.0 5.0 0.00 0.00 0.00 29 1018.1
20260503200431 85 215 4.0 5.0 0.00 0.00 0.00 30 1018.1
20260503195928 86 250 7.0 8.0 0.00 0.00 0.00 28 1018.0
20260503195426 87 223 5.0 8.0 0.00 0.00 0.00 29 1018.2
20260503194922 86 188 7.0 9.0 0.00 0.00 0.00 30 1018.1
20260503194419 87 185 5.0 9.0 0.00 0.00 0.00 31 1018.4
20260503193914 86 190 2.0 3.0 0.00 0.00 0.00 32 1018.5
20260503193409 87 228 5.0 9.0 0.00 0.00 0.00 31 1018.6
20260503192905 86 172 6.0 7.0 0.00 0.00 0.00 32 1018.6
20260503192401 86 208 2.0 3.0 0.00 0.00 0.00 32 1018.9
20260503191858 86 234 7.0 9.0 0.00 0.00 0.00 32 1018.7
20260503191355 85 149 6.0 7.0 0.00 0.00 0.00 33 1018.7
20260503190851 84 241 7.0 9.0 0.00 0.00 0.00 33 1018.8
20260503190349 87 229 5.0 8.0 0.00 0.00 0.00 31 1019.0
20260503185846 86 232 3.0 10.0 0.00 0.00 0.00 32 1019.0
20260503185343 87 225 7.0 14.0 0.00 0.00 0.00 32 1019.1
20260503184842 85 255 4.0 7.0 0.00 0.00 0.00 33 1019.1
20260503184339 85 184 6.0 8.0 0.00 0.00 0.00 32 1019.2
20260503183834 85 240 8.0 10.0 0.00 0.00 0.00 32 1019.3
20260503183332 85 117 5.0 7.0 0.00 0.00 0.00 34 1019.5
20260503182829 85 232 9.0 11.0 0.00 0.00 0.00 35 1019.5
20260503182328 86 228 7.0 9.0 0.00 0.00 0.00 34 1019.5
20260503181825 86 200 5.0 8.0 0.00 0.00 0.00 36 1019.7
20260503181322 85 164 4.0 6.0 0.00 0.00 0.00 36 1019.7
20260503180818 84 80 4.0 7.0 0.00 0.00 0.00 36 1020.0
20260503180317 85 274 9.0 10.0 0.00 0.00 0.00 37 1019.8
20260503175813 84 245 8.0 10.0 0.00 0.00 0.00 38 1020.2
20260503175311 84 271 5.0 5.0 0.00 0.00 0.00 38 1020.3
20260503174806 83 205 6.0 8.0 0.00 0.00 0.00 39 1020.2
20260503174305 83 221 5.0 7.0 0.00 0.00 0.00 39 1020.2
20260503173800 84 229 2.0 3.0 0.00 0.00 0.00 39 1020.1
20260503173256 83 197 4.0 6.0 0.00 0.00 0.00 39 1020.5
20260503172753 83 181 4.0 6.0 0.00 0.00 0.00 39 1020.7
20260503172250 83 210 7.0 9.0 0.00 0.00 0.00 39 1020.7
20260503171746 82 226 5.0 6.0 0.00 0.00 0.00 40 1020.8
20260503171244 82 165 4.0 6.0 0.00 0.00 0.00 40 1020.6
20260503170741 82 215 2.0 3.0 0.00 0.00 0.00 40 1020.6
20260503170237 83 234 5.0 7.0 0.00 0.00 0.00 39 1020.7
20260503160159 79 235 5.0 9.0 0.00 0.00 0.00 43 1021.3
20260503150629 76 38 3.0 5.0 0.00 0.00 0.00 48 1021.2
20260503150125 75 124 2.0 3.0 0.00 0.00 0.00 49 1021.2
20260503131019 66 88 0.0 1.0 0.00 0.00 0.00 64 1021.0
20260503130516 65 146 3.0 5.0 0.00 0.00 0.00 64 1021.0
20260503110413 57 133 2.0 2.0 0.00 0.00 0.00 74 1019.8
20260503090303 59 95 1.0 1.0 0.00 0.00 0.00 69 1019.9
20260503081231 60 113 1.0 2.0 0.00 0.00 0.00 68 1019.9
20260503080726 60 136 1.0 1.0 0.00 0.00 0.00 67 1020.0
20260503080224 60 138 1.0 1.0 0.00 0.00 0.00 67 1019.7
20260503072700 61 156 1.0 1.0 0.00 0.00 0.00 65 1020.0
20260503072157 61 116 2.0 2.0 0.00 0.00 0.00 65 1019.8
20260503071654 61 143 3.0 3.0 0.00 0.00 0.00 64 1020.1
20260503071151 61 105 1.0 1.0 0.00 0.00 0.00 63 1020.2
20260503070648 62 135 3.0 5.0 0.00 0.00 0.00 63 1020.2
20260503070146 62 111 1.0 1.0 0.00 0.00 0.00 62 1020.1